DECAYED

STARLINK-30202, 57293 (Decayed)

Orbit data source: Space-Track

STARLINK-30202, 57293 was a payload satellite owned by SpaceX/Seattle (US) in LEO that was launched on Mon, 10 Jul 2023 UTC via an FALCON 9 launch vehicle from the Air Force Eastern Test Range (AFETR). Payload-class satellites include a variety of spacecraft equipped with specific instruments for various scientific and technological missions. These include communications satellites like Starlink; space stations such as the ISS; scientific satellites like the Hubble; Earth observation satellites from companies like Planet Labs, Umbra, and HawkEye 360; GPS; miniature CubeSats for education and research; and military/defense satellites.

Not visible in the next 10 days
Identifier
57293, 2023-096D
Orbit
Decayed
Country
Flag of USUS
Related business
Manufacturer
SpaceX/Seattle
Mission
Decayed Commercial Communications
Bus & Motor
STARLINK V2M, Unknown motor
Mass
730 kg wet, ~700 kg dry
Launch date (UTC)
2023-07-10 (2 years ago)
Launch vehicle
FALCON 9
Launch site
Air Force Eastern Test Range (AFETR)
Object type
Payload
Rocket body
Debris
Shape & HBR
Box + 2 Pan, 14.5 m
Radar Cross Section
33.884 m², Large (>1 m²)

Expand to show TLE details & history
Last TLE update: 11 months ago

TLE from 11 months ago
0 STARLINK-30202
1 57293U 23096D   24261.26714115  .07887053  36381+0  12741-1 0  9992
2 57293  42.9814 188.9434 0022344 201.7091 291.4795 16.12176414 66617
Epoch: 2024-09-17T06:24Z
TLE epoch observation values (Epoch: 2024-09-17T06:24:40.995Z)
Latitude
30.05158°
Longitude
-122.02953°
Altitude
236.038 km
Speed
7.773 km/s
True Right ascension
22h 03m 18s
True Declination
29° 53' 28"
Sunlit
Object was in full shadow at epoch
Visualization orbit readout
Latitude
Unknown
Longitude
Unknown
Altitude
Unknown
Speed
Unknown
Apparent Right ascension
Unknown
Apparent Declination
Unknown
Sunlit
N/A
Visualization observer readout
Local Sidereal Time
17:10:42
Azimuth
Unknown
Elevation
Unknown
Doppler factor
Unknown
Orbital elements
Apogee altitude
257.693 km
Perigee altitude
228.105 km
Semi-major axis
6,621.036 km
Eccentricity
0.00223
Inclination
42.9814°
RAAN
188.9434°
Arg. of periapsis
201.7091°
True anomaly
291.241°
Mean anomaly
291.4795°
Eccentric anomaly
291.36027°
Mean motion
4.0286 °/min
Orbital period
89.36 mins
BSTAR
0.012741
Loading maneuver chart data...
Computing Atmospheric mass density...
Loading historical data...
Loading historical data...
Loading historical data...
Loading historical data...
Loading historical data...
Loading historical data...
Loading historical data...

Documentation

Showing up to 5 results
|